Location: Corocito
(10.1894°N, 67.0986°W)
Time: 09:46:08
(UTC+00:00)

ATLAS 3B R/B - Pass Details

Date: 29 May 2024
Orbit: 942 x 1252 km, 63.8° (Epoch: 16 June)

Event Time Altitude Azimuth Distance (km) Brightness Sun altitude
Rises 23:04:00 0° 2° (N) 4,181 6.1 -4.9°
Reaches altitude 10° 23:07:54 10° 19° (NNE) 3,195 5.3 -5.8°
Maximum altitude 23:12:56 19° 61° (ENE) 2,564 4.4 -6.9°
Drops below altitude 10° 23:17:48 10° 102° (ESE) 3,094 4.5 -8.0°
Enters shadow 23:18:15 - 105° (ESE) 3,190 4.5 -8.1°
